FW8536 Weather Reports


time (UTC)temp
C
wind
direction
speed
KPH
gust
KPH
rain 1hr
cm
rain 24hr
cm
rain mn
cm
humidity
%
barometer
mb
20260906214502 32 360 0.0 14.5 0.00 0.05 0.00 42 994.2
20260906214100 32 32 1.6 14.5 0.00 0.05 0.00 42 994.3
20260906213502 32 33 6.4 19.3 0.00 0.05 0.00 42 994.2
20260906213101 32 360 11.3 17.7 0.00 0.05 0.00 42 994.3
20260906212602 32 360 9.7 16.1 0.00 0.05 0.00 42 994.2
20260906212101 32 360 4.8 11.3 0.00 0.05 0.00 42 994.5
20260906211604 32 360 8.0 11.3 0.00 0.05 0.00 42 994.4
20260906211058 32 346 4.8 12.9 0.00 0.05 0.00 42 994.5
20260906210556 32 19 8.0 12.9 0.00 0.05 0.00 43 994.5
20260906205553 32 360 8.0 16.1 0.00 0.05 0.00 44 994.8
20260906204602 31 336 6.4 20.9 0.00 0.05 0.00 45 994.9
20260906204051 31 360 9.7 20.9 0.00 0.05 0.00 44 994.9
20260906203550 31 360 9.7 17.7 0.00 0.05 0.00 45 995.1
20260906203049 31 360 1.6 11.3 0.00 0.05 0.00 46 995.2
20260906202547 31 360 6.4 16.1 0.00 0.05 0.05 48 995.3
20260906202047 31 360 4.8 17.7 0.00 0.05 0.05 48 995.3
20260906201553 31 360 11.3 17.7 0.00 0.05 0.05 47 995.4
20260906201046 31 360 8.0 22.5 0.00 0.05 0.05 48 995.5
20260906200543 31 225 11.3 22.5 0.00 0.05 0.05 49 995.4
20260906200044 30 246 9.7 17.7 0.00 0.05 0.05 52 995.5
20260906195543 30 261 4.8 20.9 0.00 0.05 0.05 52 995.6
20260906194543 30 209 1.6 12.9 0.00 0.05 0.05 55 995.6
20260906194043 29 183 6.4 19.3 0.00 0.05 0.05 56 995.7
20260906193543 29 360 9.7 25.7 0.00 0.05 0.05 56 995.9
20260906193043 29 360 17.7 25.7 0.00 0.05 0.05 54 996.1
20260906192543 29 360 6.4 22.5 0.00 0.05 0.05 57 996.1
20260906192045 28 172 9.7 22.5 0.00 0.05 0.05 57 996.4
20260906191559 28 208 8.0 20.9 0.00 0.05 0.05 58 996.5
20260906191042 28 360 11.3 22.5 0.00 0.05 0.05 58 996.5
20260906190543 28 229 16.1 25.7 0.00 0.05 0.05 58 996.6
20260906190042 28 225 14.5 25.7 0.00 0.05 0.05 57 996.7
20260906185542 28 360 6.4 20.9 0.00 0.05 0.05 59 996.7
20260906184545 28 360 16.1 20.9 0.00 0.05 0.05 59 996.8
20260906184045 27 175 12.9 19.3 0.00 0.05 0.05 62 996.8
20260906183541 27 360 8.0 22.5 0.00 0.05 0.05 62 996.8
20260906183042 26 360 8.0 24.1 0.00 0.05 0.05 63 996.9
20260906182541 26 222 11.3 19.3 0.00 0.05 0.05 66 997.1
20260906182042 26 360 11.3 17.7 0.00 0.05 0.05 69 997.0
20260906181542 26 360 9.7 17.7 0.00 0.05 0.05 69 997.1
20260906181041 25 229 4.8 17.7 0.00 0.05 0.05 74 997.4
20260906180543 25 360 12.9 17.7 0.00 0.05 0.05 73 997.4
20260906180059 25 360 0.0 16.1 0.00 0.05 0.05 73 997.6
20260906175541 25 360 9.7 20.9 0.00 0.05 0.05 75 997.5
20260906174552 24 360 11.3 16.1 0.00 0.05 0.05 76 997.6
20260906174040 25 360 8.0 16.1 0.00 0.05 0.05 75 997.6
20260906173539 24 360 3.2 14.5 0.00 0.05 0.05 77 997.6
20260906173040 24 360 8.0 14.5 0.00 0.05 0.05 77 997.7
20260906172539 24 221 3.2 14.5 0.00 0.05 0.05 79 997.7
20260906172039 24 360 8.0 12.9 0.00 0.05 0.05 79 997.8
20260906171539 23 360 6.4 12.9 0.00 0.05 0.05 80 997.6
20260906171040 23 186 3.2 16.1 0.00 0.05 0.05 81 997.7
20260906170539 23 360 9.7 16.1 0.00 0.05 0.05 83 997.6
20260906170039 22 360 3.2 16.1 0.00 0.05 0.05 84 997.8
20260906165538 22 235 9.7 16.1 0.00 0.05 0.05 85 997.7
20260906164540 22 259 8.0 14.5 0.00 0.05 0.05 88 997.6
20260906164040 21 238 6.4 11.3 0.00 0.05 0.05 89 997.5
20260906163539 21 290 0.0 6.4 0.00 0.05 0.05 92 997.4
20260906163039 21 290 0.0 8.0 0.00 0.05 0.05 93 997.6
20260906162540 20 290 1.6 9.7 0.00 0.05 0.05 94 997.6
20260906162043 20 360 4.8 9.7 0.00 0.05 0.05 95 997.3
20260906161539 20 253 6.4 11.3 0.00 0.05 0.05 96 997.3
20260906161038 20 360 4.8 11.3 0.00 0.05 0.05 97 997.1
20260906160539 19 306 4.8 9.7 0.00 0.05 0.05 97 997.0
20260906160039 19 360 1.6 9.7 0.00 0.05 0.05 96 997.0
20260906155539 19 360 6.4 12.9 0.00 0.05 0.05 96 996.8
20260906154539 19 82 9.7 14.5 0.00 0.05 0.05 96 997.6
20260906154038 19 84 8.0 16.1 0.00 0.05 0.05 96 997.8
20260906153537 19 85 8.0 17.7 0.00 0.05 0.05 96 997.8
20260906153057 19 360 8.0 19.3 0.00 0.05 0.05 96 997.6
20260906152538 19 360 11.3 16.1 0.00 0.05 0.05 97 997.7
20260906152037 19 19 6.4 20.9 0.03 0.05 0.05 97 997.7
20260906151551 19 360 11.3 20.9 0.03 0.05 0.05 97 997.3
20260906151036 19 360 12.9 20.9 0.03 0.05 0.05 97 997.2
20260906150537 19 26 12.9 25.7 0.05 0.05 0.05 97 997.2
20260906150037 19 11 19.3 25.7 0.05 0.05 0.05 97 997.2
20260906145536 19 22 16.1 25.7 0.05 0.05 0.05 97 997.0
20260906145138 19 360 12.9 22.5 0.05 0.05 0.05 97 996.9
20260906144542 19 51 11.3 22.5 0.05 0.05 0.05 97 997.3
20260906144037 19 30 14.5 22.5 0.05 0.05 0.05 97 997.3
20260906143539 18 355 12.9 29.0 0.05 0.05 0.05 97 997.1
20260906143044 18 321 19.3 29.0 0.05 0.05 0.05 97 996.9
20260906142537 18 360 17.7 24.1 0.05 0.05 0.05 97 996.9
20260906142037 18 17 19.3 29.0 0.03 0.03 0.03 97 996.8
20260906141540 18 38 14.5 33.8 0.03 0.03 0.03 97 996.9
20260906141036 18 16 22.5 33.8 0.03 0.03 0.03 97 996.1
20260906140535 18 5 19.3 29.0 0.00 0.00 0.00 97 996.8
20260906140036 18 28 11.3 16.1 0.00 0.00 0.00 97 997.8
20260906135534 18 360 9.7 16.1 0.00 0.00 0.00 97 997.9
20260906134547 18 360 9.7 14.5 0.00 0.00 0.00 97 998.1
20260906134034 18 65 6.4 14.5 0.00 0.00 0.00 97 998.5
20260906133533 18 360 9.7 14.5 0.00 0.00 0.00 97 998.5
20260906133037 18 360 9.7 14.5 0.00 0.00 0.00 97 998.7
20260906132533 18 360 8.0 16.1 0.00 0.00 0.00 97 998.7
20260906132031 18 360 11.3 20.9 0.00 0.00 0.00 97 998.5
20260906131532 18 360 12.9 20.9 0.00 0.00 0.00 96 998.3
20260906131031 18 360 12.9 22.5 0.00 0.00 0.00 96 998.3
20260906130531 18 360 17.7 22.5 0.00 0.00 0.00 97 998.1
20260906130033 18 360 14.5 24.1 0.00 0.00 0.00 97 998.5
20260906125530 18 360 17.7 24.1 0.00 0.00 0.00 97 998.4
20260906124529 18 360 16.1 22.5 0.00 0.00 0.00 96 998.2
20260906124028 18 360 16.1 20.9 0.00 0.00 0.00 96 998.2
20260906123526 18 360 16.1 19.3 0.00 0.00 0.00 97 997.6
20260906123045 18 360 11.3 17.7 0.00 0.00 0.00 96 997.7
20260906122526 18 360 12.9 17.7 0.00 0.00 0.00 96 997.3
20260906122026 18 360 8.0 20.9 0.00 0.00 0.00 96 997.6
20260906121527 18 360 14.5 22.5 0.00 0.00 0.00 96 997.4
20260906121025 18 360 16.1 19.3 0.00 0.00 0.00 96 997.4
20260906120525 18 360 14.5 20.9 0.00 0.00 0.00 96 997.4
20260906120023 18 360 12.9 19.3 0.00 0.00 0.00 96 997.4
20260906115523 18 360 14.5 19.3 0.00 0.00 0.00 96 997.5
20260906114525 18 360 9.7 14.5 0.00 0.00 0.00 96 998.1
20260906114024 18 360 9.7 14.5 0.00 0.00 0.00 96 998.0
20260906113523 18 360 9.7 12.9 0.00 0.00 0.00 96 998.0
20260906113024 18 360 6.4 12.9 0.00 0.00 0.00 96 998.3
20260906112526 18 360 8.0 14.5 0.00 0.00 0.00 96 998.1
20260906112023 18 360 11.3 14.5 0.00 0.00 0.00 96 998.0
20260906111527 18 360 8.0 12.9 0.00 0.00 0.00 96 998.0
20260906111022 18 360 9.7 12.9 0.00 0.00 0.00 96 998.1
20260906110522 18 360 4.8 9.7 0.00 0.00 0.00 96 998.3
20260906110021 18 360 4.8 9.7 0.00 0.00 0.00 96 998.2
20260906105522 18 360 6.4 11.3 0.00 0.00 0.00 95 998.0
20260906104521 18 360 8.0 14.5 0.00 0.00 0.00 95 997.8
20260906104022 18 355 9.7 14.5 0.00 0.00 0.00 95 997.7
20260906103519 18 360 9.7 12.9 0.00 0.00 0.00 95 997.7
20260906103019 18 355 9.7 12.9 0.00 0.00 0.00 95 997.7
20260906102519 18 5 9.7 14.5 0.00 0.00 0.00 95 997.5
20260906102018 18 360 9.7 14.5 0.00 0.00 0.00 95 997.5
20260906101526 18 360 9.7 12.9 0.00 0.00 0.00 95 997.6
20260906101018 18 360 9.7 14.5 0.00 0.00 0.00 95 997.5
20260906100518 18 360 9.7 14.5 0.00 0.00 0.00 95 997.6
20260906100019 18 360 8.0 12.9 0.00 0.00 0.00 95 997.6
20260906095517 18 360 9.7 14.5 0.00 0.00 0.00 95 997.6
20260906094518 18 348 11.3 16.1 0.00 0.00 0.00 94 997.4
20260906094018 18 360 11.3 16.1 0.00 0.00 0.00 94 997.4
20260906093522 18 360 9.7 16.1 0.00 0.00 0.00 94 997.3
20260906093033 18 360 11.3 16.1 0.00 0.00 0.00 94 997.3
20260906092517 18 360 11.3 16.1 0.00 0.00 0.00 94 997.1
20260906092022 18 348 9.7 14.5 0.00 0.00 0.00 94 997.4
20260906091517 19 360 9.7 14.5 0.00 0.00 0.00 94 997.5
20260906091016 19 360 11.3 14.5 0.00 0.00 0.00 94 997.4
20260906090516 18 360 9.7 16.1 0.00 0.00 0.00 94 997.4
20260906090035 19 360 11.3 14.5 0.00 0.00 0.00 93 997.4
20260906085515 19 360 9.7 14.5 0.00 0.00 0.00 93 997.5
20260906084514 19 360 11.3 16.1 0.00 0.00 0.00 93 997.6
20260906084014 19 9 12.9 16.1 0.00 0.00 0.00 93 997.4
20260906083513 19 360 11.3 17.7 0.00 0.00 0.00 93 997.4
20260906083012 19 360 12.9 17.7 0.00 0.00 0.00 93 997.5
20260906082512 19 360 12.9 17.7 0.00 0.00 0.00 93 997.5
20260906082014 19 360 12.9 16.1 0.00 0.00 0.00 93 997.4
20260906081512 19 360 12.9 16.1 0.00 0.00 0.00 93 997.5
20260906081011 19 360 11.3 14.5 0.00 0.00 0.00 92 997.5
20260906080511 19 360 9.7 14.5 0.00 0.00 0.00 92 997.7
20260906080010 19 360 9.7 14.5 0.00 0.00 0.00 92 997.7
20260906075509 19 360 9.7 14.5 0.00 0.00 0.00 92 997.8
20260906074508 20 360 11.3 14.5 0.00 0.00 0.00 91 997.7
20260906074007 20 360 11.3 14.5 0.00 0.00 0.00 91 997.7
20260906073509 20 360 11.3 14.5 0.00 0.00 0.00 91 997.7
20260906073006 20 360 9.7 16.1 0.00 0.00 0.00 91 997.8
20260906072506 20 360 11.3 17.7 0.00 0.00 0.00 91 997.8
20260906072010 20 360 12.9 17.7 0.00 0.00 0.00 91 997.8
20260906071505 20 360 12.9 16.1 0.00 0.00 0.00 91 997.8
20260906071008 20 360 11.3 16.1 0.00 0.00 0.00 91 997.8
20260906070507 20 360 11.3 16.1 0.00 0.00 0.00 91 997.9
20260906070004 20 360 11.3 14.5 0.00 0.00 0.00 91 998.0
20260906065507 20 360 11.3 14.5 0.00 0.00 0.00 90 998.2
20260906064504 20 360 11.3 16.1 0.00 0.00 0.00 90 998.2
20260906064003 20 360 9.7 14.5 0.00 0.00 0.00 89 998.2
20260906063501 20 360 9.7 16.1 0.00 0.00 0.00 89 998.2
20260906063001 20 360 11.3 16.1 0.00 0.00 0.00 89 998.2
20260906062502 20 360 12.9 17.7 0.00 0.00 0.00 89 998.1
20260906062100 20 360 12.9 17.7 0.00 0.00 0.00 88 998.1
20260906061659 21 360 12.9 17.7 0.00 0.00 0.00 88 998.2
20260906061102 21 360 12.9 20.9 0.00 0.00 0.00 88 998.2
20260906060557 21 360 14.5 22.5 0.00 0.00 0.00 88 998.2
20260906060058 21 360 14.5 22.5 0.00 0.00 0.00 88 998.0
20260906055557 21 360 14.5 20.9 0.00 0.00 0.00 88 998.2
20260906055156 21 360 14.5 19.3 0.00 0.00 0.00 87 998.2
20260906054555 21 360 14.5 20.9 0.00 0.00 0.00 87 998.2
20260906054058 21 360 16.1 22.5 0.00 0.00 0.00 87 998.0
20260906053553 21 360 14.5 20.9 0.00 0.00 0.00 87 998.1
20260906053053 21 360 14.5 19.3 0.00 0.00 0.00 86 998.0
20260906052558 21 360 14.5 19.3 0.00 0.00 0.00 86 998.0
20260906052052 21 360 12.9 19.3 0.00 0.00 0.00 85 997.9
20260906051600 21 360 14.5 19.3 0.00 0.00 0.00 85 998.0
20260906051052 21 360 12.9 19.3 0.00 0.00 0.00 85 998.0
20260906050550 21 360 14.5 20.9 0.00 0.00 0.00 84 998.0
20260906045552 22 360 14.5 20.9 0.00 0.00 0.00 84 997.9
20260906045150 22 360 14.5 22.5 0.00 0.00 0.00 83 997.9
20260906044553 22 360 16.1 22.5 0.00 0.00 0.00 83 998.2
20260906044054 22 360 14.5 20.9 0.00 0.00 0.00 83 998.0
20260906043550 22 360 14.5 20.9 0.00 0.00 0.00 83 998.1
20260906043058 22 360 12.9 20.9 0.00 0.00 0.00 82 998.0
20260906042549 22 360 14.5 20.9 0.00 0.00 0.00 82 998.0
20260906042050 21 360 14.5 20.9 0.00 0.00 0.00 82 997.9
20260906041550 21 360 14.5 20.9 0.00 0.00 0.00 82 997.8
20260906041049 21 360 14.5 20.9 0.00 0.00 0.00 81 997.9
20260906040548 22 360 14.5 20.9 0.00 0.00 0.00 81 998.0
20260906040048 22 360 16.1 20.9 0.00 0.00 0.00 80 997.9
20260906035551 22 360 16.1 20.9 0.00 0.00 0.00 80 997.9
20260906035146 22 360 17.7 20.9 0.00 0.00 0.00 79 997.9
20260906034606 22 360 17.7 20.9 0.00 0.00 0.00 79 998.0
20260906034046 22 360 16.1 20.9 0.00 0.00 0.00 79 997.9
20260906033546 22 360 14.5 20.9 0.00 0.00 0.00 78 997.9
20260906033046 22 360 14.5 17.7 0.00 0.00 0.00 78 997.9
20260906032546 22 360 12.9 19.3 0.00 0.00 0.00 78 998.0
20260906032045 22 360 14.5 19.3 0.00 0.00 0.00 77 998.0
20260906031549 22 360 14.5 19.3 0.00 0.00 0.00 76 998.1
20260906031044 22 360 16.1 19.3 0.00 0.00 0.00 76 997.9
20260906030544 22 360 14.5 19.3 0.00 0.00 0.00 76 998.1
20260906030044 22 360 14.5 19.3 0.00 0.00 0.00 75 998.0
20260906025544 23 360 12.9 17.7 0.00 0.00 0.00 75 998.1
20260906025144 22 360 14.5 17.7 0.00 0.00 0.00 75 998.1
20260906024542 22 360 14.5 17.7 0.00 0.00 0.00 75 998.1
20260906024041 22 360 11.3 16.1 0.00 0.00 0.00 75 998.1
20260906023541 22 360 11.3 14.5 0.00 0.00 0.00 75 998.0
20260906023040 22 360 9.7 14.5 0.00 0.00 0.00 75 998.0
20260906022539 22 360 11.3 14.5 0.00 0.00 0.00 74 997.9
20260906022038 23 300 9.7 14.5 0.00 0.00 0.00 74 997.9
20260906021538 23 360 11.3 14.5 0.00 0.00 0.00 74 997.6
20260906021039 23 360 9.7 16.1 0.00 0.00 0.00 73 997.6
20260906020535 23 360 11.3 16.1 0.00 0.00 0.00 73 997.5
20260906020034 23 311 11.3 14.5 0.00 0.00 0.00 72 997.4
20260906015534 23 360 11.3 14.5 0.00 0.00 0.00 71 997.3
20260906015133 23 360 12.9 16.1 0.00 0.00 0.00 70 997.4
20260906014533 24 360 12.9 16.1 0.00 0.00 0.00 70 997.2
20260906014030 24 360 11.3 16.1 0.00 0.00 0.00 69 997.1
20260906013529 25 360 11.3 16.1 0.00 0.00 0.00 68 997.1
20260906013037 25 325 9.7 19.3 0.00 0.00 0.00 67 996.9
20260906012526 25 360 12.9 19.3 0.00 0.00 0.00 66 996.9
20260906012026 26 360 12.9 20.9 0.00 0.00 0.00 66 996.7
20260906011524 26 360 12.9 22.5 0.00 0.00 0.00 65 996.7
20260906011025 26 315 16.1 22.5 0.00 0.00 0.00 64 996.6
20260906010522 26 334 12.9 20.9 0.00 0.00 0.00 64 996.6
20260906010023 26 355 12.9 20.9 0.00 0.00 0.00 63 996.6
20260906005519 27 346 14.5 19.3 0.00 0.00 0.00 62 996.5
20260906005121 27 5 12.9 22.5 0.00 0.00 0.00 62 996.4
20260906004519 27 360 12.9 22.5 0.00 0.00 0.00 62 996.3
20260906004019 27 15 16.1 24.1 0.00 0.00 0.00 62 996.3
20260906003517 27 360 16.1 24.1 0.00 0.00 0.00 61 996.2
20260906003016 28 26 16.1 25.7 0.00 0.00 0.00 60 996.1
20260906002514 28 360 16.1 25.7 0.00 0.00 0.00 60 996.1
20260906002015 28 360 16.1 22.5 0.00 0.00 0.00 59 996.1
20260906001512 28 360 16.1 24.1 0.00 0.00 0.00 59 996.3
20260906001012 28 13 16.1 24.1 0.00 0.00 0.00 59 996.0
20260906000511 28 360 14.5 24.1 0.00 0.00 0.00 58 996.1
20260906000010 29 15 17.7 24.1 0.00 0.00 0.00 57 995.9
20260905235508 29 360 16.1 22.5 0.00 0.00 0.00 57 995.9
20260905235108 29 360 17.7 24.1 0.00 0.00 0.00 57 995.9
20260905234511 29 344 17.7 24.1 0.00 0.00 0.00 56 996.0
20260905234008 30 22 16.1 24.1 0.00 0.00 0.00 56 995.8
20260905233512 30 360 14.5 24.1 0.00 0.00 0.00 55 995.8
20260905233008 30 17 16.1 24.1 0.00 0.00 0.00 54 995.6
20260905232506 30 360 12.9 20.9 0.00 0.00 0.00 53 995.7
20260905232006 30 346 11.3 20.9 0.00 0.00 0.00 53 995.8
20260905231513 30 360 8.0 19.3 0.00 0.00 0.00 54 995.7
20260905231005 30 360 14.5 22.5 0.00 0.00 0.00 54 995.8
20260905230505 30 360 11.3 19.3 0.00 0.00 0.00 54 995.7
20260905230005 30 26 8.0 20.9 0.00 0.00 0.00 54 995.7
20260905225507 30 22 14.5 20.9 0.00 0.00 0.00 54 995.6
20260905225105 30 360 16.1 20.9 0.00 0.00 0.00 54 995.6
20260905224504 30 21 16.1 20.9 0.00 0.00 0.00 54 995.6
20260905224004 30 15 12.9 20.9 0.00 0.00 0.00 53 995.6
20260905223503 30 51 6.4 20.9 0.00 0.00 0.00 54 995.5
20260905223004 31 360 12.9 20.9 0.00 0.00 0.00 53 995.6
20260905222504 31 360 12.9 29.0 0.00 0.00 0.00 53 995.6
20260905222006 30 351 17.7 29.0 0.00 0.00 0.00 54 995.5
20260905221505 30 360 11.3 19.3 0.00 0.00 0.00 54 995.5
20260905221002 30 355 11.3 19.3 0.00 0.00 0.00 54 995.6
20260905220502 30 360 9.7 19.3 0.00 0.00 0.00 54 995.7
20260905220002 30 19 11.3 24.1 0.00 0.00 0.00 54 995.7
20260905215502 30 18 14.5 25.7 0.00 0.00 0.00 54 995.7